100  
ASUS43 KIWX 201210  
RWRIWX  
 
KIWX WEATHER ROUNDUP  
NATIONAL WEATHER SERVICE NORTHERN INDIANA  
700 AM EST THU FEB 20 2020  
 
NOTE: "FAIR" INDICATES FEW OR NO CLOUDS BELOW 12,000 FEET WITH NO  
SIGNIFICANT WEATHER AND/OR S TO VISIBILITY
.  
 
* THESE STATIONS ARE NOT UNDER NWS QUALITY CONTROL. THEY ALSO MAY NOT  
REPORT WEATHER SUCH AS PRECIPITATION OR FOG.
 
 
INZ001>027-201300-  
NORTHERN INDIANA  
 
CITY SKY/WX TMP DP RH WIND PRES REMARKS
 
GARY* MOCLDY 18 3 53 NW12 30.66R WCI 5  
VALPARAISO CLOUDY 19 7 59 NW8 30.62R WCI 9  
6HR MIN TEMP: 19; 6HR MAX TEMP: 22;  
 
MICHIGAN CITY* FAIR 19 14 79 NW5 30.62R WCI 13  
LAPORTE* CLOUDY 19 10 68 NW9 30.61R WCI 9  
6HR MIN TEMP: 19; 6HR MAX TEMP: 22;  
 
KNOX* CLOUDY 21 12 68 NW12 30.61R WCI 9  
SOUTH BEND CLOUDY 20 9 62 NW6 30.60R WCI 12  
6HR MIN TEMP: 17; 6HR MAX TEMP: 22;  
 
ELKHART* FAIR 19 10 68 E5 30.59 WCI 13  
GOSHEN CLOUDY 20 12 71 NE7 30.59R WCI 11  
6HR MIN TEMP: 19; 6HR MAX TEMP: 21;  
 
MONTICELLO* MOCLDY 21 9 60 N13 30.60S WCI 8  
6HR MIN TEMP: 20; 6HR MAX TEMP: 23;  
 
LOGANSPORT* MOCLDY 21 14 73 N8 30.60R WCI 12  
ROCHESTER* FAIR 23 14 68 W3 30.59R  
WARSAW* CLOUDY 21 12 68 N8 30.58R WCI 12  
KENDALLVILLE* CLOUDY 17 8 67 N5 30.57R WCI 10  
AUBURN* CLOUDY 19 12 73 N5 30.58R WCI 13  
FORT WAYNE CLOUDY 21 12 68 N7 30.57S WCI 12  
6HR MIN TEMP: 20; 6HR MAX TEMP: 22;  
 
HUNTINGTON* N/A 20 11 68 N6 30.57S WCI 13  
6HR MIN TEMP: 20; 6HR MAX TEMP: 22;  
 
PERU/GRISSOM CLOUDY 21 15 75 N7 30.57S WCI 13  
6HR MIN TEMP: 21; 6HR MAX TEMP: 23;  
 

 
INZ028>050-201300-  
CENTRAL INDIANA  
 
CITY SKY/WX TMP DP RH WIND PRES REMARKS
 
LAFAYETTE CLOUDY 22 10 60 N9 30.61R WCI 12  
6HR MIN TEMP: 22; 6HR MAX TEMP: 25;  
 
KOKOMO* MOCLDY 22 15 75 N7 30.58S WCI 13  
6HR MIN TEMP: 22; 6HR MAX TEMP: 24;  
 
MUNCIE* MOCLDY 24 14 65 N13 30.55R WCI 12  
6HR MIN TEMP: 24; 6HR MAX TEMP: 28;  
 
INDIANAPOLIS MOCLDY 24 12 60 N15 30.54S WCI 11  
6HR MIN TEMP: 24; 6HR MAX TEMP: 29;  
 

 
MIZ043>046-050>051-056>058-064>065-071>073-077>080-201300-  
SOUTHWEST LOWER MICHIGAN  
 
CITY SKY/WX TMP DP RH WIND PRES REMARKS
 
BATTLE CREEK MOCLDY 12 8 84 CALM 30.57R  
6HR MIN TEMP: 12; 6HR MAX TEMP: 16;  
 
BENTON HARBOR CLOUDY 22 8 55 VRB5 30.60R WCI 16  
6HR MIN TEMP: 21; 6HR MAX TEMP: 23;  
 
COLDWATER* FAIR 12 7 79 CALM 30.57R  
HILLSDALE* MOCLDY 13 5 70 CALM 30.53R  
6HR MIN TEMP: 13; 6HR MAX TEMP: 16;  
 
HOLLAND CLOUDY 19 9 65 CALM 30.60R  
6HR MIN TEMP: 18; 6HR MAX TEMP: 19; 6HR PCP: TRACE;  
 
GRAND RAPIDS MOCLDY 16 3 56 NW6 30.58R WCI 7  
6HR MIN TEMP: 13; 6HR MAX TEMP: 17;  
 
KALAMAZOO MOCLDY 15 6 67 CALM 30.58R  
6HR MIN TEMP: 14; 6HR MAX TEMP: 17;  
 
STURGIS* CLOUDY 15 9 74 CALM 30.57R  
6HR MIN TEMP: 15; 6HR MAX TEMP: 18;  
 
THREE RIVERS* MOCLDY 16 7 69 CALM 30.59R  
6HR MIN TEMP: 15; 6HR MAX TEMP: 18;  
 

 
OHZ001>008-015>018-024>025-201300-  
NORTHWEST OHIO  
 
CITY SKY/WX TMP DP RH WIND PRES REMARKS
 
WAUSEON* CLOUDY 18 7 62 N9 30.56S WCI 6  
DEFIANCE CLOUDY 20 8 60 N7 30.59R WCI 11  
6HR MIN TEMP: 20; 6HR MAX TEMP: 23;  
 
FINDLAY CLOUDY 20 9 62 N14 30.54S WCI 7  
6HR MIN TEMP: 20; 6HR MAX TEMP: 25;  
 
OTTAWA* FAIR 21 10 63 N9 30.58S WCI 11  
TOLEDO EXPRESS CLOUDY 19 4 51 NW12 30.57R WCI 7  
6HR MIN TEMP: 19; 6HR MAX TEMP: 23;  
 
LIMA CLOUDY 20 11 68 N9 30.54R WCI 9  
6HR MIN TEMP: 20; 6HR MAX TEMP: 26;  
 

 
AND FOR LAKE MICHIGAN COASTAL AND OPEN LAKE BUOY OBSERVATIONS  
 
STATION/POSITION TEMP WIND PRES VSBY WAVE
 
AIR SEA DIR/SP/G HT/PER  
(F) (DEG/KT/KT) (MB) (MI) (FT/S)  
CALUMET HARBOR 14 1037.1R  
MICHIGAN CITY 20 330/ 14/ 17 N/A  
 

 

 
 
 
CLICK HERE TO GO TO PREVIOUS BULLETINS.

The Nexlab IN Page
The Nexlab OH Page
The Nexlab MI Page Main Text Page